EW5042 Weather Reports


time (UTC)temp
F
wind
direction
speed
knots
gust
knots
rain 1hr
in
rain 24hr
in
rain mn
in
humidity
%
barometer
mb
20260902224550 79 285 0.0 3.5 0.00 0.00 0.00 80 1014.7
20260902223055 79 76 0.0 1.7 0.00 0.00 0.00 80 1014.7
20260902221541 79 288 0.0 1.7 0.00 0.00 0.00 80 1014.7
20260902220041 79 101 0.0 3.5 0.00 0.00 0.00 80 1014.8
20260902214536 80 71 0.0 3.5 0.00 0.00 0.00 79 1014.9
20260902213037 80 48 0.0 3.5 0.00 0.00 0.00 79 1015.0
20260902211534 80 105 0.0 6.1 0.00 0.00 0.00 79 1014.8
20260902210034 80 330 0.0 3.5 0.00 0.00 0.00 78 1015.0
20260902204544 80 59 0.0 0.0 0.00 0.00 0.00 78 1015.0
20260902203033 80 65 0.0 1.7 0.00 0.00 0.00 78 1015.0
20260902201533 80 78 0.9 5.2 0.00 0.00 0.00 78 1014.9
20260902200032 80 76 0.0 3.5 0.00 0.00 0.00 78 1015.1
20260902194532 80 49 0.0 0.9 0.00 0.00 0.00 78 1015.2
20260902193033 80 62 0.0 1.7 0.00 0.00 0.00 78 1015.1
20260902191532 81 80 0.9 5.2 0.00 0.00 0.00 79 1015.1
20260902190034 81 24 0.0 0.9 0.00 0.00 0.00 78 1015.1
20260902184534 81 69 0.0 2.6 0.00 0.00 0.00 78 1015.1
20260902183050 81 65 0.0 3.5 0.00 0.00 0.00 78 1014.8
20260902181529 81 44 0.0 2.6 0.00 0.00 0.00 78 1014.6
20260902180029 81 80 0.0 4.3 0.00 0.00 0.00 77 1014.5
20260902174528 81 71 0.0 3.5 0.00 0.00 0.00 77 1014.4
20260902173029 82 76 0.0 4.3 0.00 0.00 0.00 77 1014.3
20260902171525 82 69 0.0 3.5 0.00 0.00 0.00 76 1014.4
20260902170030 82 88 0.0 5.2 0.00 0.00 0.00 75 1014.5
20260902164530 82 63 0.0 5.2 0.00 0.00 0.00 75 1014.6
20260902163022 83 109 0.0 1.7 0.00 0.00 0.00 74 1014.7
20260902161522 83 84 0.0 6.1 0.00 0.00 0.00 73 1014.8
20260902160021 84 84 0.9 7.0 0.00 0.00 0.00 73 1014.7
20260902154520 84 100 0.0 4.3 0.00 0.00 0.00 72 1014.7
20260902153019 84 170 0.0 6.1 0.00 0.00 0.00 71 1014.8
20260902151521 85 86 0.0 3.5 0.00 0.00 0.00 69 1015.0
20260902150018 86 150 0.0 5.2 0.00 0.00 0.00 65 1015.0
20260902144517 87 207 0.0 6.1 0.00 0.00 0.00 63 1015.0
20260902143019 88 99 0.9 7.8 0.00 0.00 0.00 61 1014.9
20260902141515 88 57 0.9 8.7 0.00 0.00 0.00 58 1015.0
20260902140015 89 97 1.7 8.7 0.00 0.00 0.00 57 1015.1
20260902134514 89 98 0.9 7.0 0.00 0.00 0.00 55 1015.2
20260902133013 89 90 1.7 7.8 0.00 0.00 0.00 56 1015.1
20260902131511 89 231 0.9 8.7 0.00 0.00 0.00 55 1015.2
20260902130009 89 121 0.9 6.1 0.00 0.00 0.00 58 1015.3
20260902124510 89 140 1.7 5.2 0.00 0.00 0.00 57 1015.4
20260902123009 89 103 0.9 7.0 0.00 0.00 0.00 58 1015.5
20260902121508 89 92 0.9 7.0 0.00 0.00 0.00 59 1015.6
20260902120007 90 99 0.9 7.8 0.00 0.00 0.00 57 1015.7
20260902114507 90 83 1.7 10.4 0.00 0.00 0.00 59 1015.8
20260902113006 90 90 0.9 5.2 0.00 0.00 0.00 59 1015.8
20260902111505 89 221 0.9 7.0 0.00 0.00 0.00 57 1015.8
20260902110016 90 153 0.0 4.3 0.00 0.00 0.00 58 1016.1
20260902104507 89 178 0.9 7.8 0.00 0.00 0.00 59 1016.0
20260902103003 88 155 2.6 8.7 0.00 0.00 0.00 61 1016.1
20260902101609 89 181 1.7 5.2 0.00 0.00 0.00 61 1016.1
20260902100059 88 86 0.9 7.0 0.00 0.00 0.00 63 1016.2
20260902094558 88 149 0.0 7.0 0.00 0.00 0.00 63 1016.2
20260902093056 88 113 0.9 7.8 0.00 0.00 0.00 65 1016.2
20260902091554 87 129 2.6 8.7 0.00 0.00 0.00 65 1016.2
20260902090052 87 90 1.7 7.8 0.00 0.00 0.00 66 1016.1
20260902084554 87 81 2.6 8.7 0.00 0.00 0.00 66 1015.8
20260902083053 86 208 0.0 9.6 0.00 0.00 0.00 67 1015.8
20260902081546 86 15 0.9 7.8 0.00 0.00 0.00 68 1015.7
20260902080044 86 67 0.9 7.0 0.00 0.00 0.00 68 1015.6
20260902074540 85 82 0.0 4.3 0.00 0.00 0.00 70 1015.5
20260902073040 85 169 0.0 5.2 0.00 0.00 0.00 70 1015.4
20260902071536 85 64 0.9 3.5 0.00 0.00 0.00 70 1015.2
20260902070032 84 246 0.0 5.2 0.00 0.00 0.00 70 1015.2
20260902064529 83 57 0.9 5.2 0.00 0.00 0.00 73 1015.1
20260902063043 82 119 0.0 3.5 0.00 0.00 0.00 75 1015.2
20260902061520 80 30 0.0 2.6 0.00 0.00 0.00 78 1015.1
20260902060016 79 114 0.0 1.7 0.00 0.00 0.00 79 1015.1
20260902054514 79 29 0.0 2.6 0.00 0.00 0.00 79 1015.1
20260902053013 79 43 0.0 3.5 0.00 0.00 0.00 79 1015.1
20260902051511 78 26 0.0 2.6 0.00 0.00 0.00 80 1015.1
20260902050011 78 355 0.0 1.7 0.00 0.00 0.00 80 1015.0
20260902044507 78 292 0.0 6.1 0.00 0.00 0.00 80 1015.1
20260902043006 78 317 0.0 2.6 0.00 0.00 0.00 81 1015.1
20260902041505 78 342 0.0 1.7 0.00 0.00 0.00 81 1015.0
20260902040005 78 304 0.0 6.1 0.00 0.00 0.00 81 1015.1
20260902034503 78 261 0.0 2.6 0.00 0.00 0.00 81 1015.1
20260902033003 78 338 0.0 0.0 0.00 0.00 0.00 81 1015.1
20260902031510 78 209 1.7 7.8 0.00 0.00 0.00 81 1015.0
20260902030002 78 240 0.0 2.6 0.00 0.00 0.00 82 1015.0
20260902024501 78 306 0.9 5.2 0.00 0.00 0.00 82 1015.1
20260902023003 78 341 0.0 2.6 0.00 0.00 0.00 82 1015.2
20260902021602 78 343 0.0 2.6 0.00 0.00 0.00 82 1015.2
20260902020001 78 55 0.0 3.5 0.00 0.00 0.00 82 1015.2
20260902014559 78 45 0.0 2.6 0.00 0.00 0.00 82 1015.2
20260902013109 78 309 0.0 3.5 0.00 0.00 0.00 82 1015.3
20260902011558 78 340 0.0 3.5 0.00 0.00 0.00 82 1015.3
20260902010100 79 293 0.0 3.5 0.00 0.00 0.00 81 1015.3
20260902004556 79 350 0.0 2.6 0.00 0.00 0.00 81 1015.4
20260902003055 79 242 0.0 1.7 0.00 0.00 0.00 81 1015.2
20260902001502 79 40 0.0 3.5 0.00 0.00 0.00 81 1015.2
20260902000005 79 57 0.0 3.5 0.00 0.00 0.00 81 1015.3
20260901234502 79 112 0.0 4.3 0.00 0.00 0.00 81 1015.3
20260901233104 79 71 0.0 4.3 0.00 0.00 0.00 81 1015.3
20260901231612 79 81 0.0 4.3 0.00 0.00 0.00 81 1015.2
20260901230108 79 80 0.0 9.6 0.00 0.00 0.00 80 1015.1